Simultaneous Nadir Overpasses (SNOs) Predictions

Prediction of SNOs between AQUA and METOP-C Satellite Orbit:

Table of predicted SNOs for the next 14.0 days since TLE Epoch: 8/10/2019
Index Date (AQUA) Time (AQUA) Lat,Lon (AQUA) SZA (AQUA ) Date (METOP-C) Time (METOP-C) Lat,Lon (METOP-C) SZA (METOP-C ) Distance(km) Time Diff (sec)
1 08/10/2019 13:08:30 -73.75, 157.28 121.76 08/10/2019 13:07:35 -73.72, 157.24 121.77 3.08 55
2 08/10/2019 13:57:59 73.82, -35.24 58.33 08/10/2019 13:58:14 73.80, -35.25 58.31 2.36 15
3 08/10/2019 14:47:36 -74.41, 131.03 121.01 08/10/2019 14:48:43 -74.39, 133.55 121.14 75.33 67
4 08/13/2019 08:42:45 -73.77,-136.33 120.90 08/13/2019 08:41:57 -73.75,-136.29 120.91 2.94 48
5 08/13/2019 09:32:14 73.84, 31.15 59.19 08/13/2019 09:32:36 73.82, 31.21 59.17 3.24 22
6 08/16/2019 04:16:58 -73.75, -69.84 120.06 08/16/2019 04:16:18 -73.77, -69.82 120.02 3.05 40
7 08/16/2019 05:06:27 73.82, 97.64 60.03 08/16/2019 05:06:57 73.84, 97.67 60.05 2.62 30
8 08/18/2019 23:51:13 -73.78, -3.48 119.13 08/18/2019 23:50:41 -73.75, -3.47 119.15 3.22 32
9 08/19/2019 00:40:41 73.80, 164.12 60.91 08/19/2019 00:41:20 73.81, 164.01 60.92 3.77 39
10 08/21/2019 19:25:27 -73.76, 63.00 118.22 08/21/2019 19:25:03 -73.78, 63.00 118.21 1.45 24
11 08/21/2019 20:14:56 73.84,-129.52 61.87 08/21/2019 20:15:42 73.83,-129.54 61.86 0.57 46




NCC Satellite Simultaneous Nadir Overpasses (SNOs) Prediction Service
